Hourly Data Report for October 13, 2013

All times are specified in Local Standard Time (LST). Add 1 hour to adjust for Daylight Saving Time where and when it is observed.

KUGAARUK CLIMATE
NUNAVUT

68°32'15.060" N
89°47'47.020" W
15.80 m
2303094
71407
NBB

Download Data

Hourly Data (October 2013)
Hourly Data Report for October 13, 2013
Temp Definition
°C
Dew Point Temp Definition
°C
Rel Hum Definition
%
Wind Dir Definition
10's deg

Wind Spd Definition
km/h
Visibility Definition
km
Stn Press Definition
kPa
Hmdx Definition


Wind Chill Definition


Weather Definition


TIME
00:00 -1.2 -3.4 85 27 11   100.59   -5 LegendNANA
01:00 -1.4 -3.5 86 28 15   100.60   -6 LegendNANA
02:00 -1.7 -3.4 88 27 11   100.62   -6 LegendNANA
03:00 -1.9 -3.0 92 25 7   100.61   -5 LegendNANA
04:00 -2.0 -3.0 93 23 6   100.63   -4 LegendNANA
05:00 -1.9 -3.1 91 25 6   100.62   -4 LegendNANA
06:00 -2.0 -3.0 93 26 6   100.64   -4 LegendNANA
07:00 -1.8 -2.8 93 25 4   100.63   -3 LegendNANA
08:00 -1.7 -2.7 93 28 7   100.62   -4 LegendNANA
09:00 -1.6 -2.6 93 27 9   100.64   -5 LegendNANA
10:00 -1.4 -2.7 91 35 6   100.65   -4 LegendNANA
11:00 -1.2 -4.0 81 2 13   100.64   -5 LegendNANA
12:00 -1.1 -3.2 86 2 15   100.63   -6 LegendNANA
13:00 -1.2 -3.9 82 2 19   100.65   -7 LegendNANA
14:00 -1.2 -3.4 85 2 15   100.68   -6 LegendNANA
15:00 -1.6 -2.9 91 2 13   100.69   -6 LegendNANA
16:00 -2.2 -3.5 91 2 13   100.71   -7 LegendNANA
17:00 -2.7 -4.3 89 3 9   100.73   -6 LegendNANA
18:00 -2.2 -3.7 89 2 17   100.72   -8 LegendNANA
19:00 -1.8 -2.8 93 2 17   100.70   -7 LegendNANA
20:00 -2.1 -3.3 91 36 17   100.69   -7 LegendNANA
21:00 -2.2 -3.4 91 1 15   100.71   -7 LegendNANA
22:00 -2.3 -3.2 94 1 22   100.67   -8 LegendNANA
23:00 -2.8 -3.6 94 3 22   100.67   -9 LegendNANA

Notes on Data Quality.

Legend

  • E = Estimated
  • M = Missing
  • NA = Not Available
  • ‡ = Partner data that is not subject to review by the National Climate Archives
Date modified: